Landsat 7 - Orbit

View from above orbital plane
View from above orbital plane
View from above satellite
View from above satellite

Ground track
Ground track

The orbit data is extracted from the following two-line orbital elements,

1 25682U 99020A   13145.79062908  .00000352  00000-0  88214-4 0  1683
2 25682 098.1944 215.5510 0001197 114.5170 245.6130 14.57121941750576
Epoch (UTC): 25 May 2013 18:58:30
Eccentricity: 0.0001197
inclination: 98.1944°
perigee height: 701 km
apogee height: 703 km
right ascension of ascending node: 215.5510°
argument of perigee: 114.5170°
revolutions per day: 14.57121941
mean anomaly at epoch: 245.6130°
orbit number at epoch: 75057

The dashed part of the orbit path shows where the satellite is in the earth's shadow,  

Developed and maintained by Chris Peat, Heavens-Above GmbH. Please read the updated FAQ before sending e-mail. Imprint. DLR